Location: Austin
(30.3000°N, 97.7500°W)
Time: 06:32:42
(UTC-05:00)

Cosmos 1844 Rocket - Pass Details

Date: 16 June 2025
Orbit: 822 x 844 km, 71.0° (Epoch: 08 July)

Event Time Altitude Azimuth Distance (km) Brightness Sun altitude
Exits shadow 00:23:29 42° 12° (NNE) 1,189 3.7 -33.9°
Drops below altitude 10° 00:27:08 10° 18° (NNE) 2,464 5.7 -34.1°
Sets 00:29:36 0° 19° (NNE) 3,404 6.5 -34.3°
